Weather in Port Lincoln

Australia     34°44′18″S   135°51′12″E
temp.,
°C
wind,
m/s
gust,
m/s
humid.,
%
clouds,
%
prec.,
mm/h
press.,
hPa
HPBL,
m
28 june, tue
tue2800:30+9n3570100 0.0 103078
03:30+8n3767100 0.0 1028122
06:30+8nnw410673 0.0 1028171
09:30+11nnw511620 0.0 1028340
12:30+15nw710530 0.0 1025861
15:30+15nw710590 0.0 1023828
18:30+12nw511760 0.0 1023351
21:30+11nw411820 0.0 1023290
29 june, wed
wed2900:30+10nnw512822 0.0 1022317
03:30+10nw5128198 0.1 1021376
06:30+11wnw488953 0.4 1021184
09:30+13wsw587471 0.8 1021856
12:30+14wsw686333 0.4 10211272
15:30+14wsw68605 0.6 10201343
18:30+11sw497625 0.9 1021355
21:30+11sw5107799 1.8 1022375
30 june, thu
thu3000:30+12sw61073100 0.4 1022716
03:30+12ssw81270100 1.4 1022863
06:30+13s8127096 0.4 1022887
09:30+14sse811716 0.8 10241200
12:30+15sse796533 0.4 10251230
15:30+15sse696521 0.6 10251260
18:30+13se5107525 0.1 1027424
21:30+13se61071100 0.2 1029660
1 july, fri
fri100:30+11se59775 0.0 1029301
03:30+10se37824 0.0 1030185
06:30+10se24832 0.0 103199
09:30+13ese236921 0.0 1032406
12:30+15se346135 0.1 10321214
15:30+14se566688 0.3 10311090
18:30+13sse5871100 0.3 1032548
21:30+12s576560 0.4 1033374
2 july, sat
sat200:30+11sse3573100 0.1 1033256
03:30+11s3576100 0.4 1033277
06:30+11sse3678100 0.5 1033336
09:30+12sse3574100 1.0 1034688
12:30+12se2366100 0.5 1033867
15:30+12ese446294 0.6 10321045
18:30+11se3571100 0.1 1032252
21:30+11sse476580 0.3 1033350